Year,Month,Day,Hour,Minute,Value (Times are PST for temperature in C)
2017,03,29,04,13,7.20
2017,03,29,04,14,7.20
2017,03,29,04,15,7.20
2017,03,29,04,16,7.20
2017,03,29,04,17,7.20
2017,03,29,04,18,7.20
2017,03,29,04,19,7.20
2017,03,29,04,20,7.20
2017,03,29,04,21,7.20
2017,03,29,04,22,7.20
2017,03,29,04,23,7.20
2017,03,29,04,24,7.10
2017,03,29,04,25,7.10
2017,03,29,04,26,7.10
2017,03,29,04,27,7.10
2017,03,29,04,28,7.10
2017,03,29,04,29,7.10
2017,03,29,04,30,7.10
2017,03,29,04,31,7.10
2017,03,29,04,32,7.10
2017,03,29,04,33,7.10
2017,03,29,04,34,7.10
2017,03,29,04,35,7.10
2017,03,29,04,36,7.00
2017,03,29,04,37,7.00
2017,03,29,04,38,7.00
2017,03,29,04,39,7.00
2017,03,29,04,40,7.00
2017,03,29,04,41,7.00
2017,03,29,04,42,7.00
2017,03,29,04,43,7.00
2017,03,29,04,44,7.00
2017,03,29,04,45,7.00
2017,03,29,04,46,7.00
2017,03,29,04,47,7.00
2017,03,29,04,48,6.90
2017,03,29,04,49,6.90
2017,03,29,04,50,6.90
2017,03,29,04,51,6.90
2017,03,29,04,52,6.90
2017,03,29,04,53,6.90
2017,03,29,04,54,6.90
2017,03,29,04,55,6.90
2017,03,29,04,56,6.90
2017,03,29,04,57,6.90
2017,03,29,04,58,6.90
2017,03,29,04,59,6.90
2017,03,29,05,00,6.90
2017,03,29,05,01,6.90
2017,03,29,05,02,6.90
2017,03,29,05,03,6.90
2017,03,29,05,04,6.90
2017,03,29,05,05,6.90
2017,03,29,05,06,6.90
2017,03,29,05,07,6.90
2017,03,29,05,08,6.90
2017,03,29,05,09,6.90
2017,03,29,05,10,6.80
2017,03,29,05,11,6.80
2017,03,29,05,12,6.80
2017,03,29,05,13,6.80
2017,03,29,05,14,6.80
2017,03,29,05,15,6.80
2017,03,29,05,16,6.80
2017,03,29,05,17,6.80
2017,03,29,05,18,6.80
2017,03,29,05,19,6.80
2017,03,29,05,20,6.80
2017,03,29,05,21,6.80
2017,03,29,05,22,6.80
2017,03,29,05,23,6.80
2017,03,29,05,24,6.80
2017,03,29,05,25,6.80
2017,03,29,05,26,6.80
2017,03,29,05,27,6.80
2017,03,29,05,28,6.80
2017,03,29,05,29,6.80
2017,03,29,05,30,6.80
2017,03,29,05,31,6.80
2017,03,29,05,32,6.80
2017,03,29,05,33,6.80
2017,03,29,05,34,6.80
2017,03,29,05,35,6.80
2017,03,29,05,36,6.80
2017,03,29,05,37,6.80
2017,03,29,05,38,6.80
2017,03,29,05,39,6.80
2017,03,29,05,40,6.80
2017,03,29,05,41,6.80
2017,03,29,05,42,6.80
2017,03,29,05,43,6.80
2017,03,29,05,44,6.80
2017,03,29,05,45,6.80
2017,03,29,05,46,6.90
2017,03,29,05,47,6.90
2017,03,29,05,48,6.90
2017,03,29,05,49,6.90
2017,03,29,05,50,6.90
2017,03,29,05,51,6.90
2017,03,29,05,52,6.90
2017,03,29,05,53,6.90
2017,03,29,05,54,6.90
2017,03,29,05,55,6.90
2017,03,29,05,56,6.90
2017,03,29,05,57,6.90
2017,03,29,05,58,6.90
2017,03,29,05,59,6.90
2017,03,29,06,00,6.90
2017,03,29,06,01,6.80
2017,03,29,06,02,6.80
2017,03,29,06,03,6.80
2017,03,29,06,04,6.80
2017,03,29,06,05,6.80
2017,03,29,06,06,6.80
2017,03,29,06,07,6.80
2017,03,29,06,08,6.70
2017,03,29,06,09,6.70
2017,03,29,06,10,6.60
2017,03,29,06,11,6.60
2017,03,29,06,12,6.60
2017,03,29,06,13,6.50
2017,03,29,06,14,6.50
2017,03,29,06,15,6.40
2017,03,29,06,16,6.40
2017,03,29,06,17,6.40
2017,03,29,06,18,6.40
2017,03,29,06,19,6.40
2017,03,29,06,20,6.30
2017,03,29,06,21,6.30
2017,03,29,06,22,6.30
2017,03,29,06,23,6.30
2017,03,29,06,24,6.30
2017,03,29,06,25,6.30
2017,03,29,06,26,6.30
2017,03,29,06,27,6.20
2017,03,29,06,28,6.20
2017,03,29,06,29,6.20
2017,03,29,06,30,6.20
2017,03,29,06,31,6.20
2017,03,29,06,32,6.20
2017,03,29,06,33,6.20
2017,03,29,06,34,6.20
2017,03,29,06,35,6.20
2017,03,29,06,36,6.20
2017,03,29,06,37,6.20
2017,03,29,06,38,6.20
2017,03,29,06,39,6.20
2017,03,29,06,40,6.20
2017,03,29,06,41,6.10
2017,03,29,06,42,6.10
2017,03,29,06,43,6.10
2017,03,29,06,44,6.10
2017,03,29,06,45,6.10
2017,03,29,06,46,6.10
2017,03,29,06,47,6.10
2017,03,29,06,48,6.10
2017,03,29,06,49,6.10
2017,03,29,06,50,6.10
2017,03,29,06,51,6.10
2017,03,29,06,52,6.10
2017,03,29,06,53,6.10
2017,03,29,06,54,6.10
2017,03,29,06,55,6.10
2017,03,29,06,56,6.10
2017,03,29,06,57,6.10
2017,03,29,06,58,6.10
2017,03,29,06,59,6.10
2017,03,29,07,00,6.10
2017,03,29,07,01,6.10
2017,03,29,07,02,6.10
2017,03,29,07,03,6.10
2017,03,29,07,04,6.10
2017,03,29,07,05,6.10
2017,03,29,07,06,6.10
2017,03,29,07,07,6.10
2017,03,29,07,08,6.10
2017,03,29,07,09,6.10
2017,03,29,07,10,6.10
2017,03,29,07,11,6.10
2017,03,29,07,12,6.10
2017,03,29,07,13,6.10
2017,03,29,07,14,6.10
2017,03,29,07,15,6.10
2017,03,29,07,16,6.10
2017,03,29,07,17,6.10
2017,03,29,07,18,6.10
2017,03,29,07,19,6.10
2017,03,29,07,20,6.10
2017,03,29,07,21,6.10
2017,03,29,07,22,6.10
2017,03,29,07,23,6.10
2017,03,29,07,24,6.10
2017,03,29,09,56,6.30
2017,03,29,09,57,6.40
2017,03,29,09,58,6.40
2017,03,29,09,59,6.40
2017,03,29,10,00,6.40
2017,03,29,10,01,6.40
2017,03,29,10,02,6.40
2017,03,29,10,03,6.40
2017,03,29,10,04,6.40
2017,03,29,10,05,6.40
2017,03,29,10,06,6.40
2017,03,29,10,07,6.50
2017,03,29,10,08,6.50
2017,03,29,10,09,6.50
2017,03,29,10,10,6.50
2017,03,29,10,11,6.60
2017,03,29,10,12,6.60
2017,03,29,10,13,6.60
2017,03,29,10,14,6.60
2017,03,29,10,15,6.60
2017,03,29,10,16,6.60
2017,03,29,10,17,6.60
2017,03,29,10,18,6.60
2017,03,29,10,19,6.60
2017,03,29,10,20,6.60
2017,03,29,10,21,6.60
2017,03,29,10,22,6.60
2017,03,29,10,23,6.60
2017,03,29,10,24,6.60
2017,03,29,10,25,6.60
2017,03,29,10,26,6.60
2017,03,29,10,27,6.60
2017,03,29,10,28,6.70
2017,03,29,10,29,6.70
2017,03,29,10,30,6.70
2017,03,29,10,31,6.70
2017,03,29,10,32,6.70
2017,03,29,10,33,6.70
2017,03,29,10,34,6.70
2017,03,29,10,35,6.70
2017,03,29,10,36,6.70
2017,03,29,10,37,6.70
2017,03,29,10,38,6.70
2017,03,29,10,39,6.80
2017,03,29,10,40,6.80
2017,03,29,10,41,6.80
2017,03,29,10,42,6.80
2017,03,29,10,43,6.90
2017,03,29,10,44,6.90
2017,03,29,10,45,7.00
2017,03,29,10,46,7.10
2017,03,29,10,47,7.20
2017,03,29,10,48,7.20
2017,03,29,10,49,7.20
2017,03,29,10,50,7.20
2017,03,29,10,51,7.20
2017,03,29,10,52,7.20
2017,03,29,10,53,7.20
2017,03,29,10,54,7.20
2017,03,29,10,55,7.20
2017,03,29,10,56,7.20
2017,03,29,10,57,7.20
2017,03,29,10,58,7.20
2017,03,29,10,59,7.20
2017,03,29,11,00,7.20
2017,03,29,11,01,7.10
2017,03,29,11,02,7.10
2017,03,29,11,03,7.10
2017,03,29,11,04,7.10
2017,03,29,11,05,7.10
2017,03,29,11,06,7.10
2017,03,29,11,07,7.10
2017,03,29,11,08,7.00
2017,03,29,11,09,7.00
2017,03,29,11,10,7.00
2017,03,29,11,11,7.00
2017,03,29,11,12,7.10
2017,03,29,11,13,7.10
2017,03,29,11,14,7.10
2017,03,29,11,15,7.10
2017,03,29,11,16,7.10
2017,03,29,11,17,7.10
2017,03,29,11,18,7.10
2017,03,29,11,19,7.10
2017,03,29,11,20,7.10
2017,03,29,11,21,7.10
2017,03,29,11,22,7.10
2017,03,29,11,23,7.10
2017,03,29,11,24,7.10
2017,03,29,11,25,7.10
2017,03,29,11,26,7.20
2017,03,29,11,27,7.20
2017,03,29,11,28,7.20
2017,03,29,11,29,7.20
2017,03,29,11,30,7.20
2017,03,29,11,31,7.20
2017,03,29,11,32,7.30
2017,03,29,11,33,7.30
2017,03,29,11,34,7.30
2017,03,29,11,35,7.30
2017,03,29,11,36,7.30
2017,03,29,11,37,7.30
2017,03,29,11,38,7.30
2017,03,29,11,39,7.40
2017,03,29,11,40,7.40
2017,03,29,11,41,7.40
2017,03,29,11,42,7.40
2017,03,29,11,43,7.40
2017,03,29,11,44,7.40
2017,03,29,11,45,7.40
2017,03,29,11,46,7.40
2017,03,29,11,47,7.50
2017,03,29,11,48,7.50
2017,03,29,11,49,7.60
2017,03,29,11,50,7.60
2017,03,29,11,51,7.60
2017,03,29,11,52,7.60
2017,03,29,11,53,7.60
2017,03,29,11,54,7.50
2017,03,29,11,55,7.60
2017,03,29,11,56,7.60
2017,03,29,11,57,7.60
2017,03,29,11,58,7.50
2017,03,29,11,59,7.60
2017,03,29,12,00,7.60
2017,03,29,12,01,7.60
2017,03,29,12,02,7.60
2017,03,29,12,03,7.60
2017,03,29,12,04,7.60
2017,03,29,12,05,7.70
2017,03,29,12,06,7.70
2017,03,29,12,07,7.70
2017,03,29,12,08,7.70
2017,03,29,12,09,7.70
2017,03,29,12,10,7.70
2017,03,29,12,11,7.70
2017,03,29,12,12,7.70
2017,03,29,12,13,7.80
2017,03,29,12,14,7.80
2017,03,29,12,15,7.80
2017,03,29,12,16,7.80
2017,03,29,12,17,7.70
2017,03,29,12,18,7.70
2017,03,29,12,19,7.70
2017,03,29,12,20,7.70
2017,03,29,12,21,7.70
2017,03,29,12,22,7.70
2017,03,29,12,23,7.70
2017,03,29,12,24,7.70
2017,03,29,12,25,7.70
2017,03,29,12,26,7.70
2017,03,29,12,27,7.70
2017,03,29,12,28,7.70
2017,03,29,12,29,7.70
2017,03,29,12,30,7.70
2017,03,29,12,31,7.70
2017,03,29,12,32,7.60
2017,03,29,12,33,7.60
2017,03,29,12,34,7.70
2017,03,29,12,35,7.60
2017,03,29,12,36,7.60
2017,03,29,12,37,7.60
2017,03,29,12,38,7.60
2017,03,29,12,39,7.60
2017,03,29,12,40,7.60
2017,03,29,12,41,7.70
2017,03,29,12,42,7.70
2017,03,29,12,43,7.70
2017,03,29,12,44,7.70
2017,03,29,12,45,7.60
2017,03,29,12,46,7.60
2017,03,29,12,47,7.60
2017,03,29,12,48,7.60
2017,03,29,12,49,7.60
2017,03,29,12,50,7.60
2017,03,29,12,51,7.70
2017,03,29,12,52,7.70
2017,03,29,12,53,7.70
2017,03,29,12,54,7.60
2017,03,29,12,55,7.60
2017,03,29,12,56,7.60
2017,03,29,12,57,7.60
2017,03,29,12,58,7.60
2017,03,29,12,59,7.60
2017,03,29,13,00,7.60
2017,03,29,13,01,7.60
2017,03,29,13,02,7.60
2017,03,29,13,03,7.60
2017,03,29,13,04,7.60
2017,03,29,13,05,7.60
2017,03,29,13,06,7.70
2017,03,29,13,07,7.70
2017,03,29,13,08,7.70
2017,03,29,13,09,7.60
2017,03,29,13,10,7.70
2017,03,29,13,11,7.70
2017,03,29,13,12,7.70
2017,03,29,13,13,7.70
2017,03,29,13,14,7.80
2017,03,29,13,15,7.80
2017,03,29,13,16,7.80
2017,03,29,13,17,7.80
2017,03,29,13,18,7.80
2017,03,29,13,19,7.80
2017,03,29,13,20,7.90
2017,03,29,13,21,7.90
2017,03,29,13,22,7.90
2017,03,29,13,23,7.90
2017,03,29,13,24,8.00
2017,03,29,13,25,8.00
2017,03,29,13,26,8.00
2017,03,29,13,27,8.00
2017,03,29,13,28,8.00
2017,03,29,13,29,8.00
2017,03,29,13,30,8.00
2017,03,29,13,31,8.00
2017,03,29,13,32,8.00
2017,03,29,13,33,7.90
2017,03,29,13,34,7.90
2017,03,29,13,35,8.00
2017,03,29,13,36,8.00
2017,03,29,13,37,8.00
2017,03,29,13,38,8.00
2017,03,29,13,39,8.00
2017,03,29,13,40,8.00
2017,03,29,13,41,8.00
2017,03,29,13,42,8.00
2017,03,29,13,43,8.00
2017,03,29,13,44,8.00
2017,03,29,13,45,8.10
2017,03,29,13,46,8.00
2017,03,29,13,47,8.00
2017,03,29,13,48,8.00
2017,03,29,13,49,8.00
2017,03,29,13,50,8.10
2017,03,29,13,51,8.10
2017,03,29,13,52,8.10
2017,03,29,13,53,8.10
2017,03,29,13,54,8.10
2017,03,29,13,55,8.10
2017,03,29,13,56,8.20
2017,03,29,13,57,8.20
2017,03,29,13,58,8.20
2017,03,29,13,59,8.20
2017,03,29,14,00,8.20
2017,03,29,14,01,8.20
2017,03,29,14,02,8.20
2017,03,29,14,03,8.20
2017,03,29,14,04,8.20
2017,03,29,14,05,8.30
2017,03,29,14,06,8.30
2017,03,29,14,07,8.30
2017,03,29,14,08,8.30
2017,03,29,14,09,8.30
2017,03,29,14,10,8.40
2017,03,29,14,11,8.40
2017,03,29,14,12,8.40
2017,03,29,14,13,8.50
2017,03,29,14,14,8.50
2017,03,29,14,15,8.50
2017,03,29,14,16,8.40
2017,03,29,14,17,8.40
2017,03,29,14,18,8.40
2017,03,29,14,19,8.50
2017,03,29,14,20,8.50
2017,03,29,14,21,8.60
2017,03,29,14,22,8.60
2017,03,29,14,23,8.60
2017,03,29,14,24,8.70
2017,03,29,14,25,8.70
2017,03,29,14,26,8.70
2017,03,29,14,27,8.70
2017,03,29,14,28,8.70
2017,03,29,14,29,8.70
2017,03,29,14,30,8.70
2017,03,29,14,31,8.70
2017,03,29,14,32,8.80
2017,03,29,14,33,8.80
2017,03,29,14,34,8.80
2017,03,29,14,35,8.80
2017,03,29,14,36,8.90
2017,03,29,14,37,8.90
2017,03,29,14,38,8.90
2017,03,29,14,39,8.90
2017,03,29,14,40,8.90
2017,03,29,14,41,9.00
2017,03,29,14,42,9.00
2017,03,29,14,43,9.00
2017,03,29,14,44,9.10
2017,03,29,14,45,9.10
2017,03,29,14,46,9.20
2017,03,29,14,47,9.10
2017,03,29,14,48,9.10
2017,03,29,14,49,9.20
2017,03,29,14,50,9.20
2017,03,29,14,51,9.20
2017,03,29,14,52,9.30
2017,03,29,14,53,9.30
2017,03,29,14,54,9.30
2017,03,29,14,55,9.30
2017,03,29,14,56,9.30
2017,03,29,14,57,9.40
2017,03,29,14,58,9.40
2017,03,29,14,59,9.50
2017,03,29,15,00,9.50
2017,03,29,15,01,9.60
2017,03,29,15,02,9.70
2017,03,29,15,03,9.70
2017,03,29,15,04,9.70
2017,03,29,15,05,9.60
2017,03,29,15,06,9.60
2017,03,29,15,07,9.70
2017,03,29,15,08,9.70
2017,03,29,15,09,9.80
2017,03,29,15,10,9.90
2017,03,29,15,11,9.90
2017,03,29,15,12,9.90
2017,03,29,15,13,9.90
2017,03,29,15,14,9.90
2017,03,29,15,15,10.00
2017,03,29,15,16,10.10
2017,03,29,15,17,10.10
2017,03,29,15,18,10.20
2017,03,29,15,19,10.30
2017,03,29,15,20,10.30
2017,03,29,15,21,10.20
2017,03,29,15,22,10.20
2017,03,29,15,23,10.10
2017,03,29,15,24,10.10
2017,03,29,15,25,10.10
2017,03,29,15,26,10.10
2017,03,29,15,27,10.10
2017,03,29,15,28,10.10
2017,03,29,15,29,10.10
2017,03,29,15,30,10.10
2017,03,29,15,31,10.10
2017,03,29,15,32,10.10
2017,03,29,15,33,10.10
2017,03,29,15,34,10.20
2017,03,29,15,35,10.20
2017,03,29,15,36,10.20
2017,03,29,15,37,10.20
2017,03,29,15,38,10.20
2017,03,29,15,39,10.30
2017,03,29,15,40,10.30
2017,03,29,15,41,10.40
2017,03,29,15,42,10.50
2017,03,29,15,43,10.60
2017,03,29,15,44,10.70
2017,03,29,15,45,10.80
2017,03,29,15,46,10.80
2017,03,29,15,47,10.80
2017,03,29,15,48,10.80
2017,03,29,15,49,10.90
2017,03,29,15,50,11.00
2017,03,29,15,51,11.00
2017,03,29,15,52,11.10
2017,03,29,15,53,11.10
2017,03,29,15,54,11.20
2017,03,29,15,55,11.20
2017,03,29,15,56,11.20
2017,03,29,15,57,11.20
2017,03,29,15,58,11.30
2017,03,29,15,59,11.30
2017,03,29,16,00,11.30
2017,03,29,16,01,11.30
2017,03,29,16,02,11.30
2017,03,29,16,03,11.30
2017,03,29,16,04,11.30
2017,03,29,16,05,11.30
2017,03,29,16,06,11.30
2017,03,29,16,07,11.40
2017,03,29,16,08,11.40
2017,03,29,16,09,11.50
2017,03,29,16,10,11.60
2017,03,29,16,11,11.60
2017,03,29,16,12,11.70
2017,03,29,16,13,11.80
2017,03,29,16,14,11.90
2017,03,29,16,15,12.00
2017,03,29,16,16,12.10
2017,03,29,16,17,12.10
2017,03,29,16,18,12.20
2017,03,29,16,19,12.20
2017,03,29,16,20,12.30
2017,03,29,16,21,12.30
2017,03,29,16,22,12.30
2017,03,29,16,23,12.30
2017,03,29,16,24,12.30
2017,03,29,16,25,12.30
2017,03,29,16,26,12.40
2017,03,29,16,27,12.40
2017,03,29,16,28,12.30
2017,03,29,16,29,12.30
2017,03,29,16,30,12.30
2017,03,29,16,31,12.20
2017,03,29,16,32,12.20
2017,03,29,16,33,12.20
2017,03,29,16,34,12.20
2017,03,29,16,35,12.20
2017,03,29,16,36,12.30
2017,03,29,16,37,12.40
2017,03,29,16,38,12.50
2017,03,29,16,39,12.60
2017,03,29,16,40,12.70
2017,03,29,16,41,12.80
2017,03,29,16,42,12.80
2017,03,29,16,43,12.90
2017,03,29,16,44,12.90
2017,03,29,16,45,13.00
2017,03,29,16,46,13.10
2017,03,29,16,47,13.10
2017,03,29,16,48,13.10
2017,03,29,16,49,13.20
2017,03,29,16,50,13.10
2017,03,29,16,51,13.00
2017,03,29,16,52,12.90
2017,03,29,16,53,12.90
2017,03,29,16,54,12.90
2017,03,29,16,55,13.00
2017,03,29,16,56,13.10
2017,03,29,16,57,13.20
2017,03,29,16,58,13.20
2017,03,29,16,59,13.20
2017,03,29,17,00,13.20
2017,03,29,17,01,13.20
2017,03,29,17,02,13.30
2017,03,29,17,03,13.30
2017,03,29,17,04,13.40
2017,03,29,17,05,13.50
2017,03,29,17,06,13.70
2017,03,29,17,07,13.80
2017,03,29,17,08,13.80
2017,03,29,17,09,13.80
2017,03,29,17,10,13.90
2017,03,29,17,11,13.90
2017,03,29,17,12,13.80
2017,03,29,17,13,13.80
2017,03,29,17,14,13.80
2017,03,29,17,15,13.80
2017,03,29,17,16,13.90
2017,03,29,17,17,13.90
2017,03,29,17,18,13.90
2017,03,29,17,19,13.80
2017,03,29,17,20,13.80
2017,03,29,17,21,13.70
2017,03,29,17,22,13.70
2017,03,29,17,23,13.70
2017,03,29,17,24,13.70
2017,03,29,17,25,13.70
2017,03,29,17,26,13.70
2017,03,29,17,27,13.70
2017,03,29,17,28,13.70
2017,03,29,17,29,13.70
2017,03,29,17,30,13.60
2017,03,29,17,31,13.60
2017,03,29,17,32,13.60
2017,03,29,17,33,13.60
2017,03,29,17,34,13.60
2017,03,29,17,35,13.60
2017,03,29,17,36,13.60
2017,03,29,17,37,13.70
2017,03,29,17,38,13.70
2017,03,29,17,39,13.60
2017,03,29,17,40,13.60
2017,03,29,17,41,13.50
2017,03,29,17,42,13.50
2017,03,29,17,43,13.40
2017,03,29,17,44,13.30
2017,03,29,17,45,13.30
2017,03,29,17,46,13.30
2017,03,29,17,47,13.30
2017,03,29,17,48,13.20
2017,03,29,17,49,13.20
2017,03,29,17,50,13.20
2017,03,29,17,51,13.20
2017,03,29,17,52,13.20
2017,03,29,17,53,13.10
2017,03,29,17,54,13.10
2017,03,29,17,55,13.10
2017,03,29,17,56,13.10
2017,03,29,17,57,13.10
2017,03,29,17,58,13.10
2017,03,29,17,59,13.00
2017,03,29,18,00,13.00
2017,03,29,18,01,13.00
2017,03,29,18,02,13.10
2017,03,29,18,03,13.00
2017,03,29,18,04,13.00
2017,03,29,18,05,13.00
2017,03,29,18,06,13.10
2017,03,29,18,07,13.10
2017,03,29,18,08,13.00
2017,03,29,18,09,12.90
2017,03,29,18,10,12.80
2017,03,29,18,11,12.80
2017,03,29,18,12,12.80
2017,03,29,18,13,12.70
2017,03,29,18,14,12.70
2017,03,29,18,15,12.60
2017,03,29,18,16,12.60
2017,03,29,18,17,12.50
2017,03,29,18,18,12.50
2017,03,29,18,19,12.50
2017,03,29,18,20,12.60
2017,03,29,18,21,12.60
2017,03,29,18,22,12.60
2017,03,29,18,23,12.60
2017,03,29,18,24,12.60
2017,03,29,18,25,12.60
2017,03,29,18,26,12.70
2017,03,29,18,27,12.70
2017,03,29,18,28,12.70
2017,03,29,18,29,12.70
2017,03,29,18,30,12.70
2017,03,29,18,31,12.70
2017,03,29,18,32,12.70
2017,03,29,18,33,12.70
2017,03,29,18,34,12.60
2017,03,29,18,35,12.60
2017,03,29,18,36,12.60
2017,03,29,18,37,12.50
2017,03,29,18,38,12.50
2017,03,29,18,39,12.40
2017,03,29,18,40,12.30
2017,03,29,18,41,12.30
2017,03,29,18,42,12.30
2017,03,29,18,43,12.30
2017,03,29,18,44,12.30
2017,03,29,18,45,12.30
2017,03,29,18,46,12.20
2017,03,29,18,47,12.20
2017,03,29,18,48,12.20
2017,03,29,18,49,12.20
2017,03,29,18,50,12.20
2017,03,29,18,51,12.20
2017,03,29,18,52,12.10
2017,03,29,18,53,12.10
2017,03,29,18,54,12.10
2017,03,29,18,55,12.00
2017,03,29,18,56,12.00
2017,03,29,18,57,11.90
2017,03,29,18,58,11.90
2017,03,29,18,59,11.80
2017,03,29,19,00,11.80
2017,03,29,19,01,11.80
2017,03,29,19,02,11.80
2017,03,29,19,03,11.80
2017,03,29,19,04,11.80
2017,03,29,19,05,11.80
2017,03,29,19,06,11.80
2017,03,29,19,07,11.80
2017,03,29,19,08,11.80
2017,03,29,19,09,11.80
2017,03,29,19,10,11.80
2017,03,29,19,11,11.80
